Voltar ao catálogo

STARLINK-11326

AtivoComunicaçõesVLEO
NORAD 62010·PAYLOAD·🇺🇸 United States

Lançado Nov 18, 2024 de Vandenberg Space Force Base

Loading…

Próximas Passagens (próximas 24 horas)

TLE

AtualizadoSource: CelesTrak SupGP

Época: Sep 15, 2026, 03:39 UTC

1 62010C 24213C   26258.15256944 -.00041628  00000+0 -34278-3 0  2587
2 62010  53.1570 187.3314 0001202  82.7376 208.9115 15.69738642    15

Acompanhe STARLINK-11326 em tempo real com AllMySat

Download on the App Store